Find OTC-P1-1

NORAD ID: 63351 Int'l Des: 2025-061 Owner: ORORA Country: D operational
LEOCIRCULARRETROGRADESSO

当前视图

正在加载3D地球...

关于 OTC-P1-1

正在加载描述...

即将过境

Passes for default location (London). Set your location on the main map for personalized predictions.

高度历史

Loading altitude history...

两行轨道根数

1 63351U 25061A 26150.17077549 .00004993 00000-0 28292-3 0 9997
2 63351 97.5622 125.6671 0017887 332.5841 27.4444 15.13332652 64866
Epoch: May 30, 2026 • Age: 6 hours

当前状态

高度 520.2 km
速度 7.61 km/s
星下点 18.77°N, 77.47°E
发射日期 Mar 26, 2025
运行时间 1.1 years
类型 other

技术详情

分类 Payload
质量 15.00 kg
干质量 15.00 kg
总质量 15.00 kg
长度 0.30 m
直径 0.20 m
跨度 0.40 m
形状 Box+2 pan
制造商 SPIREG
平台类型 Cubesat 6U
阶段状态 In Orbit
所有者/国家 ORORA/D

Most Searched